Location: ???????????
(54.5822°N, 39.1075°E)
Time: 14:06:23
(UTC+00:00)

ATLAS 3B R/B - Pass Details

Date: 19 May 2025
Orbit: 935 x 1258 km, 63.8° (Epoch: 19 June)

Event Time Altitude Azimuth Distance (km) Brightness Sun altitude
Exits shadow 21:30:06 11° 222° (SW) 2,997 4.6 -15.4°
Maximum altitude 21:37:21 84° 137° (SE) 1,242 3.0 -15.4°
Drops below altitude 10° 21:45:16 10° 49° (NE) 3,247 5.9 -15.3°
Sets 21:48:06 0° 49° (NE) 4,221 6.6 -15.2°
